* Astronomy

Members Login
Post Info TOPIC: S/2010 J 2


L

Posts: 131433
Date:
RE: S/2010 J 2
Permalink  
 


Orbital elements:
S/2010 J 2
Epoch 2011 Aug. 27.0 TT = JDT 2455800.5                 MPC
M 245.41173              (2000.0)            P               Q
n   0.61186954     Peri.   70.52018     +0.74303561     -0.60607454
a   0.1353110      Node    34.99862     -0.62580172     -0.77953863
e   0.3084171      Incl.  150.33703     +0.23721358     -0.15809234
P   1.61           H   17.4           P/d   588.36
From 101 observations 2010 Sept. 7-2011 Sept. 4

MPEC 2011 - R50

S/2010 J 2 is a natural satellite of Jupiter. It was discovered by Christian Veillet in 2010.
Source



__________________


L

Posts: 131433
Date:
Permalink  
 

S/2010 J 2
Epoch 2011 Aug. 27.0 TT = JDT 2455800.5                 MPC
M 245.14203              (2000.0)            P               Q
n   0.61139349     Peri.   70.75815     +0.74097690     -0.60856189
a   0.1353812      Node    35.03926     -0.62856304     -0.77733298
e   0.3076065      Incl.  150.36318     +0.23635088     -0.15939219
P   1.61           H   17.5           P/d   588.82
From 86 observations 2010 Sept. 7-Nov. 1

MPEC 2011 - L06



__________________
Page 1 of 1  sorted by
 
Quick Reply

Please log in to post quick replies.



Create your own FREE Forum
Report Abuse
Powered by ActiveBoard